Tracking 21076 objects as of 8-Aug-2020
HD Live streaming from Space Station
objects crossing your sky now

SAKURA 2A (CS-2A)

Track SAKURA 2A (CS-2A) now!
SAKURA 2A (CS-2A) is classified as:


NORAD ID: 13782
Int'l Code: 1983-006A
Perigee: 36,006.0 km
Apogee: 36,067.7 km
Inclination: 13.7 °
Period: 1,448.5 minutes
Semi major axis: 42407 km
RCS: 5.8102 m2 (large)
Launch date: February 4, 1983
Source: Japan (JPN)
Launch site: TANEGASHIMA SPACE CENTER (TNSTA)
aabbcc
Your satellite tracking list
Your tracking list is empty




NASA's NSSDC Master Catalog

Two Line Element Set (TLE):
1 13782U 83006A   20220.59751153 -.00000226  00000-0  00000+0 0  9990
2 13782  13.6616 337.3335 0007271 285.8269  75.5166  0.99410886106620
Source of the keplerian elements: AFSPC